Home   Weather   Swansea   Past weeks

Flag for United Kingdom Past Weather in Swansea, Wales, United Kingdom — Yesterday and Last 2 Weeks

Now
60 °F

Cool.


Feels Like: 60 °F
Forecast: 54 / 64 °F
Wind: 22 mph from South

Location: Mumbles

Current Time: Sep 26, 2016 at 6:30:42 PM

Latest Report: Sep 26, 2016 at 5:00 PM


Visibility: N/A

Pressure: 30.09 "Hg

Humidity: 86%

Dew Point: 56 °F

Location of SwanseaLocation

Past Weather in Swansea — Graph

°F

Swansea Temperature Yesterday

Maximum temperature yesterday: 61 °F (at 1:00 PM)
Minimum temperature yesterday: 57 °F (at 7:00 AM)
Average temperature yesterday: 59 °F

High & Low Weather Summary for the Past Weeks

 TemperatureHumidityPressure
High73 °F (Sep 15, 4:00 PM)99% (Sep 19, 7:00 AM)30.27 "Hg (Sep 19, 7:00 AM)
Low53 °F (Sep 22, 7:00 AM)54% (Sep 22, 3:00 PM)29.74 "Hg (Sep 25, 2:00 AM)
Average61 °F81%30.03 "Hg
* Reported Sep 11 5:00 PM — Sep 26 5:00 PM, Swansea, Weather by CustomWeather, © 2016

Note: Actual official high and low records may vary slightly from our data, if they occured in-between our weather recording intervals... More about our weather records

Advertising

Swansea Weather History for the Previous 24 Hours

Scroll right to see more
 ConditionsComfort  
Time TempWeatherWind HumidityBarometerVisibility
5:00 PM
Mon, Sep 26
60 °FCool.22 mph86%30.09 "HgN/A
3:00 PM59 °FCool.28 mph91%30.10 "HgN/A
2:00 PM58 °FCool.31 mph95%30.10 "HgN/A
1:00 PM58 °FCool.24 mph90%30.09 "HgN/A
12:00 PM58 °FCool.28 mph92%30.09 "HgN/A
11:00 AM58 °FCool.29 mph91%30.10 "HgN/A
10:00 AM58 °FCool.25 mph86%30.09 "HgN/A
9:00 AM58 °FCool.18 mph87%30.10 "HgN/A
8:00 AM59 °FCool.23 mph88%30.09 "HgN/A
7:00 AM56 °FCool.7 mph92%30.10 "HgN/A
6:00 AM57 °FCool.16 mph89%30.10 "HgN/A
5:00 AM57 °FCool.20 mph86%30.11 "HgN/A
4:00 AM58 °FCool.17 mph89%30.11 "HgN/A
3:00 AM56 °FCool.18 mph87%30.12 "HgN/A
2:00 AM59 °FCool.17 mph80%30.12 "HgN/A
1:00 AM59 °FCool.28 mph81%30.11 "HgN/A
12:00 AM60 °FCool.25 mph75%30.11 "HgN/A
11:00 PM
Sun, Sep 25
59 °FCool.29 mph72%30.11 "HgN/A
10:00 PM58 °FCool.29 mph78%30.10 "HgN/A
9:00 PM59 °FCool.25 mph79%30.09 "HgN/A
8:00 PM59 °FCool.30 mph75%30.08 "HgN/A
7:00 PM60 °FCool.29 mph69%30.06 "HgN/A
6:00 PM60 °FCool.30 mph71%30.05 "HgN/A
Weather by CustomWeather, © 2016

See weather overviewHow to use our weather pages